Погода в Букобе

Танзания     1°19′58″S   31°48′47″E
темп.,
°C
ветер,
м/с
пор.,
м/с
влажн.,
%
обл.,
%
осадки,
мм/ч
давл.,
гПа
погр.,
м
10 августа, ср
ср1000:00+18з1163100 0.0 101311
03:00+18юз2255100 0.0 101213
06:00+16зсз1162100 0.0 101311
09:00+23ю374979 0.0 1014592
12:00+28ююв5534100 0.0 10131597
15:00+28юв6631100 0.0 10101043
18:00+25юв4739100 0.0 1009445
21:00+20вюв226863 0.0 101118
11 августа, чт
чт1100:00+19ююз116384 0.0 101211
03:00+18зюз116084 0.0 101112
06:00+17зюз1159100 0.0 101211
09:00+24юв2649100 0.0 1013615
12:00+27юв5641100 0.0 10131534
15:00+27юв4539100 0.0 10101486
18:00+23в3552100 0.0 1010306
21:00+20всв1171100 0.0 101111
12 августа, пт
пт1200:00+18зюз116928 0.0 101211
03:00+18з2264100 0.0 101020
06:00+18ююз0065100 0.0 101212
09:00+24ююв4553100 0.1 1013926
12:00+26юв66466 0.1 10131617
15:00+27юв4541100 0.1 10111549
18:00+23в3554100 0.0 1010359
21:00+20в1169100 0.0 101111
13 августа, сб
сб1300:00+18з11734 0.0 101211
03:00+17з227460 0.0 101128
06:00+17всв007083 0.0 101211
09:00+24юв125120 0.0 1014311
12:00+27юв544237 0.0 10121644
15:00+27юв553699 0.0 10101358
18:00+24в354848 0.0 1010530
21:00+19с117383 0.0 101111
14 августа, вс
вс1400:00+18зсз217347 0.0 101316
03:00+19з2363100 0.0 101178
06:00+19сз115985 0.0 101220
09:00+24ссв23499 0.0 1013467
12:00+29всв433846 0.0 10112034
15:00+27в5543100 0.0 10091167
18:00+24в4554100 0.0 1009594
21:00+20ссв227992 0.0 101137